Location: Unspecified
(42.9300°N, 71.1866°W)
Time: 20:34:22
(UTC-04:00)

Okean 3 - Visible Passes

Search period start: 24 July 2014 00:00
Search period end: 03 August 2014 00:00
Orbit: 583 x 610 km, 82.5° (Epoch: 24 July)

Date Brightness Start Highest point End Pass type
(mag) Time Alt. Az. Time Alt. Az. Time Alt. Az.
25 Jul 5.7 20:50:14 10° NNW 20:53:48 27° W 20:57:21 10° SSW visible
26 Jul 6.3 21:01:15 10° NW 21:04:04 18° W 21:06:52 10° SW visible
27 Jul 6.7 21:13:04 10° WNW 21:14:18 11° W 21:15:31 10° W visible
